KMHKKLHX

Guest
Details From KMHK - MANHATTAN RGNL
To KLHX - LA JUNTA MUNI
Flight Number -
Tags generated
Created
Modified
Stats Distance 328 nm / 607 km
Max Altitude 18,000 ft / 5,486 m
Waypoints 4
Social Downloads 0
Likes 0
Share VATSIM

Download

Looking for another format? Having issues loading an existing format? Contact us
Advertisement - Login to hide

Notes

Basic altitude profile: - Ascent Rate: 700ft/min - Ascent Speed: 70kts - Cruise Altitude: 10000ft - Cruise Speed: 110kts - Descent Rate: 700ft/min - Descent Speed: 110kts Options: - Use NATs: yes - Use PACOTS: yes - Use low airways: yes - Use high airways: yes

Route

KMHK SLN J102 RYLIE KLHX

ID Type Via Altitude Latitude Longitude Leg Dist Tot Dist Heading (true) Name
O KMHK APT - 0 ft / 0 m 39.14147˚ -96.67060˚ - 0 nm - MANHATTAN RGNL
SLN VOR - 16,500 ft / 5,029 m 38.92514˚ -97.62136˚ 46 nm 46 nm 254° / 253° SALINA VORTAC
RYLIE FIX J102 (AWY-HI) 18,000 ft / 5,486 m 38.33731˚ -101.82748˚ 200 nm 246 nm 261° / 259° -
O KLHX APT - 0 ft / 0 m 38.04986˚ -103.50925˚ 81 nm 327 nm 258° / 257° LA JUNTA MUNI

Altitude Profile

Advertisement - Login to hide

Weather


0- 5 10 15 20 25 30 35+ Temperature / ° C

Clouds and Precipitation
Forecast for 2018-05-20 18:00 UTC. Updated 5 hours ago

Ground ~20,000 ft ~40,000 ft Winds

KMHK

Details ICAO KMHK (MHK)
Name MANHATTAN RGNL
Region United States
Timezone America/Chicago (UTC-5.0)
Stats Elevation 1,057 ft / 322 m (AMSL)
Location 39.141466° -96.670598°
Runways 2
Magnetic Variation 3.090° E

METAR

KMHK 202152Z 00000KT 6SM HZ OVC013 18/15 A3005 RMK AO2 SLP174 T01780150

Decode

TAF

KMHK 201721Z 2018/2118 36005KT 6SM BR VCSH OVC010 FM202200 01006KT P6SM OVC025 FM210900 VRB04KT P6SM BKN010 FM211500 VRB03KT P6SM SCT015

Decode

Departure Runways

ID Width Length Bearing (true) Bearing (mag) Surface Threshold Offset Overrun Length
03 150 ft / 46 m 7,001 ft / 2,134 m 39.79° 36.70° Concrete 0 ft / 0 m 0 ft / 0 m
13 100 ft / 30 m 3,801 ft / 1,159 m 142.32° 139.23° Asphalt 0 ft / 0 m 0 ft / 0 m
21 150 ft / 46 m 7,001 ft / 2,134 m 219.80° 216.71° Concrete 0 ft / 0 m 0 ft / 0 m
31 100 ft / 30 m 3,801 ft / 1,159 m 322.33° 319.24° Asphalt 0 ft / 0 m 0 ft / 0 m

KLHX

Details ICAO KLHX (LHX)
Name LA JUNTA MUNI
Region United States
Timezone America/Denver (UTC-6.0)
Stats Elevation 4,238 ft / 1,292 m (AMSL)
Location 38.049862° -103.509245°
Runways 2
Magnetic Variation 7.260° E

METAR

KLHX 202153Z AUTO 10007KT 10SM CLR 19/06 A3009 RMK AO2 SLP157 T01890061

Decode

TAF

Not found

Destination Runways

ID Width Length Bearing (true) Bearing (mag) Surface Threshold Offset Overrun Length
08 75 ft / 23 m 6,834 ft / 2,083 m 89.80° 82.54° Asphalt 0 ft / 0 m 0 ft / 0 m
12 60 ft / 18 m 5,800 ft / 1,768 m 135.34° 128.08° Asphalt 0 ft / 0 m 0 ft / 0 m
26 75 ft / 23 m 6,834 ft / 2,083 m 269.81° 262.55° Asphalt 0 ft / 0 m 0 ft / 0 m
30 60 ft / 18 m 5,800 ft / 1,768 m 315.35° 308.09° Asphalt 0 ft / 0 m 0 ft / 0 m